Find Starlink 6341

NORAD ID: 56786 Int'l Des: 2023-078 Owner: SPXS Country: US Constellation: starlink operational
LEOCIRCULAR

当前视图

正在加载3D地球...

About Starlink 6341

Starlink 6341 (NORAD 56786) is a starlink constellation satellite (v1.5) launched May 31, 2023 by SPXS of US. It operates in LEO, CIRCULAR orbit with a mass of 305.00 kg.

关于 Starlink 6341

正在加载描述...

即将过境

Passes for default location (London). Set your location on the main map for personalized predictions.

高度历史

Loading altitude history...

两行轨道根数

1 56786U 23078V 26170.77570255 .00000673 00000-0 64191-4 0 9997
2 56786 70.0000 67.1179 0002908 267.2473 92.8353 14.98328374168466
Epoch: Jun 19, 2026 • Age: 13 hours

当前状态

高度 574.2 km
速度 7.57 km/s
星下点 7.63°N, 47.96°E
发射日期 May 31, 2023
运行时间 3 years
类型 internet

技术详情

分类 Payload
质量 305.00 kg
干质量 290.00 kg
总质量 305.00 kg
长度 0.20 m
直径 2.80 m
跨度 9.00 m
形状 Box + pan
制造商 SPXS
平台类型 Starlink
阶段状态 In Orbit
所有者/国家 SPXS/US

Most Searched